Location: Ladysmith
(45.4630°N, 91.1040°W)
Time: 10:44:17
(UTC-06:00)

Amateur Radio Satellites - All Passes

Search period start: 04 March 2015 10:14
Search period end: 05 March 2015 10:14
Location: Ladysmith, 45.4630°N, 91.1040°W

Satellite Date Start Highest point End Downlink Frequencies (MHz)
Time Altitude Azimuth
O/OREOS (USA 219) 04 Mar 10:15:34 10:19:30 27° 306° (NW) 10:23:24 437.305
ESTCUBE 1 04 Mar 10:16:01 10:18:33 15° 88° (E) 10:21:16 437.505/2401.250
UWE-3 04 Mar 10:18:46 10:22:56 84° 284° (WNW) 10:27:07 435.000/436.395/437.385
HO-68 04 Mar 10:22:10 10:28:44 39° 298° (WNW) 10:35:12 435.675
ISS 04 Mar 10:28:07 10:31:05 33° 346° (NNW) 10:34:04 145.825
SO-50 04 Mar 10:32:04 10:36:41 39° 242° (WSW) 10:41:14 436.795
GOMX 1 04 Mar 10:32:22 10:34:40 14° 300° (WNW) 10:36:45 467.674
NANOSAT C BR1 04 Mar 10:34:28 10:38:40 55° 260° (W) 10:42:53 145.865
AAUSAT CUBESAT 2 04 Mar 10:36:52 10:39:49 18° 295° (WNW) 10:42:38 437.432
COMPASS 1 04 Mar 10:41:17 10:43:46 15° 297° (WNW) 10:46:07 437.405
Oscar 11 04 Mar 10:41:41 10:45:33 32° 291° (WNW) 10:49:22 145.826/435.025
CINEMA 3 04 Mar 10:52:32 10:55:35 19° 295° (WNW) 10:58:30 145.822/145.860
50 SAT 04 Mar 10:58:33 11:02:32 83° 103° (ESE) 11:06:30 437.505
DOVE 4 04 Mar 10:59:54 11:00:45 10° 301° (WNW) 11:01:23 437.250
CUBEBUG 2 04 Mar 11:00:39 11:04:10 26° 292° (WNW) 11:07:37 437.445
QB50P1 04 Mar 11:08:40 11:12:14 25° 266° (W) 11:15:46 145.935-145.965
DX 1 04 Mar 11:08:58 11:12:59 36° 291° (WNW) 11:16:57 434.975-435.025
BUGSAT 1 04 Mar 11:09:03 11:12:55 32° 264° (W) 11:16:45 437.445
UNISAT 6 04 Mar 11:12:39 11:15:07 14° 271° (W) 11:17:22 437.425
QB50P2 04 Mar 11:13:24 11:16:49 22° 267° (W) 11:20:08 145.880/145.840
CUBEBUG 1 04 Mar 11:17:28 11:21:49 55° 100° (E) 11:26:08 437.445
AISAT 04 Mar 11:20:19 11:24:45 62° 287° (WNW) 11:29:07 437.250
DANDE 04 Mar 11:20:44 11:23:08 30° 265° (W) 11:25:30 436.750
HUMSAT D 04 Mar 11:20:48 11:24:41 40° 289° (WNW) 11:28:32 437.325/437.525
GONETS M04 04 Mar 11:25:47 11:29:30 13° 287° (WNW) 11:32:38
DUCHIFAT 1 04 Mar 11:27:33 11:30:24 17° 270° (W) 11:33:07 145.980
VELOX 1 04 Mar 11:29:01 11:33:22 52° 288° (WNW) 11:37:40 145.980
FUNcube-1 04 Mar 11:30:48 11:33:50 19° 295° (WNW) 11:36:47 145.935
ZACube-1 04 Mar 11:32:50 11:35:46 19° 295° (WNW) 11:38:37 437.345
DELFI C3 04 Mar 11:34:58 11:36:30 12° 298° (WNW) 11:37:50 145.870
Oscar 19 04 Mar 11:36:33 11:40:40 26° 64° (ENE) 11:44:53 437.125/150
UKube-1 04 Mar 11:36:45 11:40:04 21° 296° (WNW) 11:43:16 .
TISAT 1 04 Mar 11:40:20 11:43:40 23° 93° (E) 11:47:03 437.305
CUSAT 1 04 Mar 11:40:54 11:41:53 11° 268° (W) 11:42:47 437.405
ITAMSAT 1 04 Mar 11:42:07 11:43:34 11° 55° (NE) 11:45:16 435.822/435.867
SPROUT 04 Mar 11:42:46 11:46:26 27° 94° (E) 11:50:08 437.525
ESTCUBE 1 04 Mar 11:51:24 11:55:56 62° 287° (WNW) 12:00:25 437.505/2401.250
ISS 04 Mar 12:05:15 12:08:04 27° 6° (N) 12:10:54 145.825
BEESAT 04 Mar 12:19:48 12:20:18 10° 85° (E) 12:21:07 436.000
AO-7 04 Mar 12:33:53 12:37:41 14° 41° (NE) 12:41:51 29.400- 29.500
50 SAT 04 Mar 12:36:28 12:36:59 10° 299° (WNW) 12:37:19 437.505
ITUPSAT 1 04 Mar 12:45:58 12:49:22 19° 90° (E) 12:52:54 437.325
CUBEBUG 1 04 Mar 12:54:53 12:57:49 17° 297° (WNW) 13:00:36 437.445
Gurwin Techsat 1B 04 Mar 13:00:52 13:05:43 38° 68° (ENE) 13:10:39 435.225
HORYU 2 04 Mar 13:05:52 13:06:43 11° 58° (ENE) 13:07:48 437.375
Oscar 19 04 Mar 13:14:52 13:19:48 46° 261° (W) 13:24:45 437.125/150
TISAT 1 04 Mar 13:15:44 13:19:36 35° 291° (WNW) 13:23:24 437.305
ITAMSAT 1 04 Mar 13:17:02 13:22:13 69° 73° (ENE) 13:27:28 435.822/435.867
SPROUT 04 Mar 13:18:45 13:22:33 30° 292° (WNW) 13:26:16 437.525
KKS-1 04 Mar 13:36:20 13:37:47 12° 87° (E) 13:39:28 437.445
ISS 04 Mar 13:41:39 13:44:52 66° 26° (NNE) 13:48:05 145.825
SWISSCUBE 04 Mar 13:45:53 13:50:45 79° 104° (ESE) 13:55:34 437.505
BEESAT 04 Mar 13:54:09 13:59:00 87° 100° (E) 14:03:49 436.000
AO-7 04 Mar 14:20:48 14:28:45 52° 62° (ENE) 14:36:44 29.400- 29.500
ITUPSAT 1 04 Mar 14:22:56 14:27:39 52° 289° (WNW) 14:32:19 437.325
YUBILEINY 04 Mar 14:26:18 14:32:19 22° 79° (E) 14:38:45 435.215
HORYU 2 04 Mar 14:38:18 14:42:44 84° 74° (ENE) 14:47:11 437.375
Gurwin Techsat 1B 04 Mar 14:41:05 14:45:47 31° 266° (W) 14:50:29 435.225
ITAMSAT 1 04 Mar 14:58:55 15:02:20 17° 272° (W) 15:05:32 435.822/435.867
JAS-2 04 Mar 15:06:53 15:12:17 50° 68° (ENE) 15:18:25 435.910
KKS-1 04 Mar 15:10:37 15:15:04 76° 286° (WNW) 15:19:29 437.445
STARS 04 Mar 15:12:19 15:16:44 75° 102° (ESE) 15:21:06 437.465
ISS 04 Mar 15:18:33 15:21:01 20° 223° (SW) 15:23:27 145.825
SWISSCUBE 04 Mar 15:25:18 15:28:03 15° 300° (WNW) 15:30:37 437.505
CUTE-I 04 Mar 15:33:41 15:34:10 10° 53° (NE) 15:34:56 437.470
BEESAT 04 Mar 15:33:49 15:36:14 14° 301° (WNW) 15:38:28 436.000
AO-7 04 Mar 16:13:59 16:21:47 41° 263° (W) 16:29:30 29.400- 29.500
HORYU 2 04 Mar 16:19:15 16:20:07 10° 274° (W) 16:20:42 437.375
YUBILEINY 04 Mar 16:19:25 16:28:10 84° 279° (W) 16:37:03 435.215
BEESAT 3 04 Mar 16:27:14 16:31:00 37° 118° (ESE) 16:34:52 437.485
MOZHAYETS 4 04 Mar 16:36:31 16:41:01 48° 98° (E) 16:45:31
VERMONT LUNAR 04 Mar 16:41:19 16:43:43 18° 158° (SSE) 16:46:10 437.305
STARS 04 Mar 16:50:31 16:52:41 13° 300° (WNW) 16:54:41 437.465
JAS-2 04 Mar 16:53:06 16:57:52 27° 271° (W) 17:02:57 435.910
M-CUBED/EXP-1 PRIME 04 Mar 16:53:45 16:58:02 75° 108° (ESE) 17:02:38 437.505
AIST 1 04 Mar 16:53:54 16:57:06 20° 68° (ENE) 17:00:24
AUBIESAT-1 04 Mar 16:53:55 16:58:12 68° 107° (ESE) 17:02:46 437.475
BEESAT 2 04 Mar 16:54:47 16:58:51 61° 122° (ESE) 17:02:59 435.950
Cubesat XI-IV 04 Mar 16:59:46 17:04:56 52° 70° (ENE) 17:10:12 437.490
PHONESAT 2.4 04 Mar 17:00:35 17:02:36 14° 154° (SSE) 17:04:41 2401.200-2431.200
AIST 2 04 Mar 17:04:20 17:08:03 31° 116° (ESE) 17:11:53 435.215
O/OREOS (USA 219) 04 Mar 17:05:01 17:07:47 16° 47° (NE) 17:10:40 437.305
CUTE-I 04 Mar 17:08:01 17:13:17 60° 71° (ENE) 17:18:36 437.470
HO-68 04 Mar 17:24:25 17:25:34 11° 43° (NE) 17:27:05 435.675
STRAND 1 04 Mar 18:01:45 18:05:19 19° 90° (E) 18:09:03 437.568
BEESAT 3 04 Mar 18:05:34 18:09:12 28° 317° (NW) 18:12:49 437.485
MOZHAYETS 4 04 Mar 18:14:27 18:17:58 21° 295° (WNW) 18:21:23
VERMONT LUNAR 04 Mar 18:17:54 18:21:07 34° 174° (S) 18:24:20 437.305
YUBILEINY 04 Mar 18:20:19 18:26:39 21° 304° (WNW) 18:32:42 435.215
GOMX 1 04 Mar 18:27:04 18:29:41 14° 61° (ENE) 18:32:27 467.674
AUBIESAT-1 04 Mar 18:30:02 18:32:43 16° 302° (WNW) 18:35:21 437.475
M-CUBED/EXP-1 PRIME 04 Mar 18:30:09 18:32:35 15° 302° (WNW) 18:34:56 437.505
AIST 1 04 Mar 18:30:51 18:35:02 42° 267° (W) 18:39:10
PRISM 04 Mar 18:31:15 18:35:26 57° 101° (E) 18:39:37 437.425
BRITE-PL 04 Mar 18:31:32 18:35:46 23° 65° (ENE) 18:39:57 437.365/2234.400
BEESAT 2 04 Mar 18:34:14 18:37:25 21° 322° (NW) 18:40:35 435.950
PHONESAT 2.4 04 Mar 18:37:11 18:40:28 32° 170° (S) 18:43:46 2401.200-2431.200
Cubesat XI-IV 04 Mar 18:41:06 18:45:24 23° 268° (W) 18:49:36 437.490
CUBESAT XI-V 04 Mar 18:41:27 18:46:12 74° 102° (ESE) 18:50:53 437.345
AIST 2 04 Mar 18:42:41 18:46:37 35° 315° (NW) 18:50:36 435.215
O/OREOS (USA 219) 04 Mar 18:43:14 18:47:51 77° 247° (WSW) 18:52:25 437.305
CUTE-I 04 Mar 18:49:51 18:53:51 20° 270° (W) 18:57:41 437.470
DOVE 4 04 Mar 18:51:12 18:54:06 16° 63° (ENE) 18:57:06 437.250
PCSat 04 Mar 18:54:04 18:56:46 14° 105° (ESE) 18:59:43 145.827
SEEDS 04 Mar 18:54:55 18:57:14 15° 63° (ENE) 18:59:42 437.485
CANX-2 04 Mar 19:00:42 19:03:53 22° 66° (ENE) 19:07:09 2200.000
HO-68 04 Mar 19:05:00 19:11:40 45° 64° (ENE) 19:18:25 435.675
CUTE 1.7 + AOD 2 04 Mar 19:18:27 19:22:04 29° 69° (ENE) 19:25:46 437.475
STRAND 1 04 Mar 19:39:55 19:44:59 59° 289° (WNW) 19:50:01 437.568
UWE-3 04 Mar 19:44:37 19:46:16 12° 62° (ENE) 19:48:06 435.000/436.395/437.385
AAUSAT CUBESAT 2 04 Mar 19:53:36 19:57:29 42° 71° (ENE) 20:01:26 437.432
VERMONT LUNAR 04 Mar 19:55:30 19:58:38 30° 191° (S) 20:01:44 437.305
COMPASS 1 04 Mar 19:57:48 20:01:51 53° 73° (ENE) 20:05:55 437.405
GOMX 1 04 Mar 20:01:55 20:07:17 89° 256° (WSW) 20:12:21 467.674
Oscar 11 04 Mar 20:02:47 20:06:25 28° 68° (ENE) 20:10:06 145.826/435.025
PRISM 04 Mar 20:07:55 20:10:33 16° 297° (WNW) 20:13:03 437.425
BRITE-PL 04 Mar 20:08:27 20:13:59 58° 260° (W) 20:19:15 437.365/2234.400
PHONESAT 2.4 04 Mar 20:15:11 20:18:33 35° 187° (S) 20:21:54 2401.200-2431.200
CINEMA 3 04 Mar 20:18:08 20:22:44 53° 72° (ENE) 20:27:08 145.822/145.860
CUBESAT XI-V 04 Mar 20:20:22 20:23:07 15° 299° (WNW) 20:25:40 437.345
CUBEBUG 2 04 Mar 20:24:14 20:28:15 34° 70° (ENE) 20:32:12 437.445
DOVE 4 04 Mar 20:26:21 20:31:27 74° 259° (W) 20:36:17 437.250
SEEDS 04 Mar 20:28:31 20:32:39 58° 260° (W) 20:36:48 437.485
DX 1 04 Mar 20:30:50 20:34:36 29° 67° (ENE) 20:38:24 434.975-435.025
GONETS M04 04 Mar 20:33:55 20:41:08 32° 84° (E) 20:48:34
PCSat 04 Mar 20:34:05 20:39:31 88° 297° (WNW) 20:45:00 145.827
CANX-2 04 Mar 20:35:42 20:39:38 38° 263° (W) 20:43:35 2200.000
HUMSAT D 04 Mar 20:40:21 20:43:16 19° 65° (ENE) 20:46:16 437.325/437.525
AISAT 04 Mar 20:45:23 20:48:27 19° 63° (ENE) 20:51:39 437.250
DELFI C3 04 Mar 20:47:41 20:51:40 63° 74° (ENE) 20:55:41 145.870
FUNcube-1 04 Mar 20:51:43 20:55:49 44° 72° (ENE) 20:59:53 145.935
HO-68 04 Mar 20:52:51 20:59:30 40° 263° (W) 21:06:09 435.675
VELOX 1 04 Mar 20:53:28 20:56:49 22° 64° (ENE) 21:00:16 145.980
ZACube-1 04 Mar 20:53:45 20:57:56 47° 72° (ENE) 21:02:02 437.345
CUTE 1.7 + AOD 2 04 Mar 20:54:23 20:58:01 27° 266° (W) 21:01:36 437.475
UKube-1 04 Mar 20:56:57 21:01:09 49° 71° (ENE) 21:05:23 .
UWE-3 04 Mar 21:17:54 21:22:19 79° 256° (WSW) 21:26:38 435.000/436.395/437.385
ESTCUBE 1 04 Mar 21:17:55 21:21:04 19° 64° (ENE) 21:24:22 437.505/2401.250
AAUSAT CUBESAT 2 04 Mar 21:30:25 21:33:23 18° 269° (W) 21:36:14 437.432
VERMONT LUNAR 04 Mar 21:34:12 21:35:56 13° 206° (SSW) 21:37:36 437.305
COMPASS 1 04 Mar 21:35:31 21:37:58 15° 271° (W) 21:40:14 437.405
Oscar 11 04 Mar 21:38:43 21:42:33 30° 265° (W) 21:46:21 145.826/435.025
RS-15 04 Mar 21:43:51 21:52:38 31° 106° (ESE) 22:01:51 29.354- 29.394
GOMX 1 04 Mar 21:43:53 21:46:06 12° 274° (W) 21:47:59 467.674
50 SAT 04 Mar 21:47:10 21:51:06 66° 75° (ENE) 21:55:03 437.505
TIGRISAT 04 Mar 21:48:11 21:50:58 17° 91° (E) 21:53:55 435.000
PHONESAT 2.4 04 Mar 21:53:55 21:56:28 18° 203° (SSW) 21:58:59 2401.200-2431.200
CINEMA 3 04 Mar 21:57:00 22:00:15 18° 269° (W) 22:03:17 145.822/145.860
POPSAT HIP 1 04 Mar 21:57:14 21:58:41 12° 87° (E) 22:00:21 437.405
POLYITAN 1 04 Mar 21:57:46 21:59:23 12° 87° (E) 22:01:13 437.675
CUBEBUG 2 04 Mar 22:01:20 22:05:03 25° 266° (W) 22:08:37 437.445
ANTELSAT 04 Mar 22:02:33 22:06:04 25° 94° (E) 22:09:43 437.575/2403.000
DX 1 04 Mar 22:06:53 22:10:48 30° 264° (W) 22:14:42 434.975-435.025
HUMSAT D 04 Mar 22:14:48 22:18:48 43° 262° (W) 22:22:47 437.325/437.525
CUBEBUG 1 04 Mar 22:15:35 22:19:58 61° 73° (ENE) 22:24:24 437.445
NANOSAT C BR1 04 Mar 22:18:10 22:21:16 20° 92° (E) 22:24:25 145.865
PCSat 04 Mar 22:19:47 22:23:46 20° 324° (NW) 22:27:41 145.827
AISAT 04 Mar 22:20:20 22:24:44 52° 260° (W) 22:29:10 437.250
DELFI C3 04 Mar 22:25:44 22:27:23 12° 273° (W) 22:28:50 145.870
VELOX 1 04 Mar 22:28:50 22:33:09 44° 261° (W) 22:37:28 145.980
GONETS M04 04 Mar 22:28:56 22:37:32 61° 285° (WNW) 22:46:08
FUNcube-1 04 Mar 22:29:19 22:32:26 18° 269° (W) 22:35:23 145.935
ZACube-1 04 Mar 22:31:37 22:34:36 17° 270° (W) 22:37:25 437.345
UKube-1 04 Mar 22:34:38 22:37:38 17° 269° (W) 22:40:30 .
TISAT 1 04 Mar 22:34:57 22:38:23 24° 66° (ENE) 22:41:53 437.305
SPROUT 04 Mar 22:39:10 22:42:54 29° 68° (ENE) 22:46:41 437.525
BUGSAT 1 04 Mar 22:49:12 22:52:54 31° 96° (E) 22:56:34 437.445
QB50P1 04 Mar 22:50:59 22:55:02 44° 98° (E) 22:59:05 145.935-145.965
DANDE 04 Mar 22:51:22 22:56:12 24° 95° (E) 23:00:15 436.750
ESTCUBE 1 04 Mar 22:53:12 22:57:38 51° 261° (W) 23:02:05 437.505/2401.250
QB50P2 04 Mar 22:55:38 22:59:46 50° 99° (E) 23:03:53 145.880/145.840
UNISAT 6 04 Mar 22:59:51 23:04:10 83° 285° (WNW) 23:08:31 437.425
CUSAT 1 04 Mar 23:06:43 23:12:01 37° 97° (E) 23:16:10 437.405
BEESAT 3 04 Mar 23:08:04 23:09:07 11° 27° (NNE) 23:10:16 437.485
DUCHIFAT 1 04 Mar 23:08:33 23:12:46 68° 102° (ESE) 23:16:56 145.980
SWISSCUBE 04 Mar 23:19:19 23:22:04 16° 60° (ENE) 23:25:01 437.505
TIGRISAT 04 Mar 23:23:55 23:28:03 47° 288° (WNW) 23:32:12 435.000
50 SAT 04 Mar 23:25:30 23:26:38 11° 273° (W) 23:27:32 437.505
BEESAT 04 Mar 23:27:12 23:30:12 17° 61° (ENE) 23:33:22 436.000
POPSAT HIP 1 04 Mar 23:30:56 23:35:09 69° 286° (WNW) 23:39:19 437.405
POLYITAN 1 04 Mar 23:31:39 23:35:52 66° 287° (WNW) 23:40:03 437.675
BEESAT 2 04 Mar 23:35:27 23:37:46 14° 32° (NNE) 23:40:08 435.950
ANTELSAT 04 Mar 23:39:05 23:42:58 33° 291° (WNW) 23:46:51 437.575/2403.000
AIST 2 04 Mar 23:47:18 23:48:05 10° 25° (NNE) 23:48:59 435.215
RS-15 04 Mar 23:53:05 00:04:01 79° 309° (NW) 00:15:13 29.354- 29.394
NANOSAT C BR1 04 Mar 23:53:22 23:57:19 39° 290° (WNW) 00:01:15 145.865
CUBEBUG 1 04 Mar 23:54:15 23:56:49 15° 272° (W) 23:59:13 437.445
ITUPSAT 1 04 Mar 23:54:51 23:58:55 29° 66° (ENE) 00:03:06 437.325
TISAT 1 05 Mar 00:10:07 00:14:04 35° 264° (W) 00:17:59 437.305
SPROUT 05 Mar 00:15:09 00:18:59 29° 265° (W) 00:22:46 437.525
BUGSAT 1 05 Mar 00:24:51 00:28:19 25° 293° (WNW) 00:31:39 437.445
QB50P1 05 Mar 00:27:35 00:30:39 19° 295° (WNW) 00:33:37 145.935-145.965
GONETS M04 05 Mar 00:32:18 00:36:46 14° 310° (NW) 00:40:44
QB50P2 05 Mar 00:32:31 00:35:21 17° 296° (WNW) 00:38:04 145.880/145.840
YUBILEINY 05 Mar 00:32:45 00:36:06 13° 48° (NE) 00:40:00 435.215
DANDE 05 Mar 00:33:25 00:39:30 47° 283° (WNW) 00:44:04 436.750
KKS-1 05 Mar 00:36:26 00:39:03 16° 62° (ENE) 00:41:50 437.445
STARS 05 Mar 00:38:45 00:39:53 11° 59° (ENE) 00:41:15 437.465
BEESAT 3 05 Mar 00:44:13 00:48:16 48° 49° (NE) 00:52:15 437.485
DUCHIFAT 1 05 Mar 00:45:59 00:48:08 14° 298° (WNW) 00:50:08 145.980
SO-50 05 Mar 00:48:22 00:52:41 41° 118° (ESE) 00:57:11 436.795
CUSAT 1 05 Mar 00:50:11 00:54:54 26° 287° (WNW) 00:58:34 437.405
SWISSCUBE 05 Mar 00:54:39 00:59:26 73° 258° (WSW) 01:04:16 437.505
BEESAT 05 Mar 01:02:52 01:07:36 65° 258° (WSW) 01:12:23 436.000
BEESAT 2 05 Mar 01:12:29 01:16:41 77° 53° (NE) 01:20:48 435.950
Gurwin Techsat 1B 05 Mar 01:16:40 01:18:36 12° 85° (E) 01:20:51 435.225
AIST 2 05 Mar 01:23:45 01:27:52 42° 47° (NE) 01:31:55 435.215
Oscar 19 05 Mar 01:23:53 01:28:54 52° 99° (E) 01:33:55 437.125/150
ITAMSAT 1 05 Mar 01:28:33 01:32:20 21° 90° (E) 01:36:15 435.822/435.867
ITUPSAT 1 05 Mar 01:32:21 01:36:45 35° 264° (W) 01:41:10 437.325
RS-15 05 Mar 02:08:41 02:18:27 34° 338° (NNW) 02:28:24 29.354- 29.394
KKS-1 05 Mar 02:10:50 02:15:17 64° 259° (WSW) 02:19:45 437.445
STARS 05 Mar 02:11:17 02:15:44 87° 76° (ENE) 02:20:11 437.465
M-CUBED/EXP-1 PRIME 05 Mar 02:13:07 02:14:36 13° 56° (ENE) 02:16:15 437.505
AUBIESAT-1 05 Mar 02:13:19 02:14:25 11° 55° (NE) 02:15:40 437.475
BEESAT 3 05 Mar 02:23:00 02:26:04 20° 246° (WSW) 02:29:00 437.485
AO-7 05 Mar 02:23:18 02:25:27 11° 81° (E) 02:28:18 29.400- 29.500
YUBILEINY 05 Mar 02:26:56 02:35:36 56° 74° (ENE) 02:44:15 435.215
HORYU 2 05 Mar 02:29:05 02:31:16 14° 88° (E) 02:33:40 437.375
SO-50 05 Mar 02:29:08 02:33:21 32° 318° (NW) 02:37:41 436.795
BEESAT 2 05 Mar 02:52:35 02:54:20 12° 250° (WSW) 02:55:53 435.950
Gurwin Techsat 1B 05 Mar 02:54:07 02:59:28 88° 99° (E) 03:04:49 435.225
AIST 2 05 Mar 03:02:48 03:06:17 24° 245° (WSW) 03:09:38 435.215
Oscar 19 05 Mar 03:03:57 03:07:58 23° 297° (WNW) 03:11:52 437.125/150
ITAMSAT 1 05 Mar 03:07:08 03:12:16 56° 289° (WNW) 03:17:21 435.822/435.867
PCSat 05 Mar 03:37:04 03:41:26 24° 40° (NE) 03:45:52 145.827
MOZHAYETS 4 05 Mar 03:40:34 03:45:01 57° 73° (ENE) 03:49:33
AUBIESAT-1 05 Mar 03:45:33 03:48:51 58° 253° (WSW) 03:52:20 437.475
M-CUBED/EXP-1 PRIME 05 Mar 03:45:55 03:49:10 50° 254° (WSW) 03:52:36 437.505
JAS-2 05 Mar 03:57:04 04:04:10 44° 96° (E) 04:11:38 435.910
HORYU 2 05 Mar 04:04:02 04:08:27 65° 287° (WNW) 04:12:52 437.375
AO-7 05 Mar 04:12:04 04:20:17 62° 103° (ESE) 04:28:28 29.400- 29.500
CUBESAT XI-V 05 Mar 04:12:51 04:14:43 13° 59° (ENE) 04:16:48 437.345
SO-50 05 Mar 04:14:26 04:15:28 11° 342° (NNW) 04:16:25 436.795
YUBILEINY 05 Mar 04:24:16 04:32:08 36° 275° (W) 04:39:48 435.215
RS-15 05 Mar 04:25:39 04:35:03 30° 12° (NNE) 04:44:51 29.354- 29.394
Gurwin Techsat 1B 05 Mar 04:35:44 04:38:48 15° 302° (WNW) 04:41:41 435.225
Cubesat XI-IV 05 Mar 05:15:56 05:19:18 17° 88° (E) 05:22:53 437.490
STRAND 1 05 Mar 05:19:26 05:24:03 35° 67° (ENE) 05:28:45 437.568
MOZHAYETS 4 05 Mar 05:19:47 05:22:43 16° 271° (W) 05:25:28
PCSat 05 Mar 05:20:00 05:25:25 70° 241° (WSW) 05:30:48 145.827
PRISM 05 Mar 05:23:41 05:27:44 56° 72° (ENE) 05:31:52 437.425
CUTE-I 05 Mar 05:23:48 05:27:36 20° 90° (E) 05:31:33 437.470
AIST 1 05 Mar 05:29:21 05:29:25 10° 83° (E) 05:29:44
JAS-2 05 Mar 05:42:11 05:49:13 46° 293° (WNW) 05:56:32 435.910
CUBESAT XI-V 05 Mar 05:46:49 05:51:31 90° 78° (ENE) 05:56:18 437.345
AO-7 05 Mar 06:05:24 06:12:44 36° 303° (WNW) 06:19:56 29.400- 29.500
RS-15 05 Mar 06:39:22 06:50:30 58° 43° (NE) 07:02:10 29.354- 29.394
GONETS M04 05 Mar 06:40:44 06:46:14 18° 54° (NE) 06:52:07
Cubesat XI-IV 05 Mar 06:54:40 07:00:02 70° 288° (WNW) 07:05:21 437.490
STRAND 1 05 Mar 06:58:39 07:03:17 32° 265° (W) 07:07:54 437.568
PRISM 05 Mar 07:01:22 07:03:41 14° 271° (W) 07:05:50 437.425
AIST 1 05 Mar 07:02:05 07:06:27 81° 279° (W) 07:10:54
CUTE-I 05 Mar 07:02:52 07:08:10 60° 289° (WNW) 07:13:25 437.470
CUBESAT XI-V 05 Mar 07:28:44 07:29:47 10° 276° (W) 07:30:32 437.345
JAS-2 05 Mar 07:30:42 07:32:45 11° 312° (NW) 07:34:25 435.910
SO-50 05 Mar 07:37:46 07:40:59 17° 30° (NNE) 07:44:18 436.795
ISS 05 Mar 07:58:11 08:01:08 34° 142° (SE) 08:04:07 145.825
GOMX 1 05 Mar 08:03:04 08:06:15 20° 91° (E) 08:09:25 467.674
SEEDS 05 Mar 08:11:31 08:14:37 20° 91° (E) 08:17:47 437.485
BRITE-PL 05 Mar 08:12:01 08:16:14 37° 96° (E) 08:20:12 437.365/2234.400
HO-68 05 Mar 08:17:29 08:24:01 37° 96° (E) 08:30:37 435.675
CANX-2 05 Mar 08:18:49 08:22:35 30° 95° (E) 08:26:22 2200.000
DOVE 4 05 Mar 08:24:23 08:27:44 23° 92° (E) 08:31:04 437.250
UNISAT 6 05 Mar 08:27:04 08:29:05 13° 62° (ENE) 08:31:16 437.425
GONETS M04 05 Mar 08:36:08 08:44:55 77° 79° (E) 08:53:44
CUTE 1.7 + AOD 2 05 Mar 08:36:48 08:40:51 42° 98° (E) 08:44:56 437.475
Cubesat XI-IV 05 Mar 08:37:18 08:39:16 12° 305° (NW) 08:41:00 437.490
CUTE-I 05 Mar 08:46:39 08:47:17 10° 307° (NW) 08:47:38 437.470
TIGRISAT 05 Mar 08:49:21 08:52:35 21° 66° (ENE) 08:55:54 435.000
RS-15 05 Mar 08:52:04 09:03:00 52° 246° (WSW) 09:14:14 29.354- 29.394
POPSAT HIP 1 05 Mar 08:52:28 08:54:34 14° 62° (ENE) 08:56:49 437.405
POLYITAN 1 05 Mar 08:53:18 08:55:31 14° 62° (ENE) 08:57:53 437.675
O/OREOS (USA 219) 05 Mar 08:57:19 09:01:53 82° 114° (ESE) 09:06:31 437.305
ANTELSAT 05 Mar 09:03:57 09:07:44 30° 68° (ENE) 09:11:30 437.575/2403.000
UWE-3 05 Mar 09:06:49 09:09:26 16° 90° (E) 09:12:09 435.000/436.395/437.385
AAUSAT CUBESAT 2 05 Mar 09:09:53 09:14:03 59° 100° (E) 09:18:12 437.432
NANOSAT C BR1 05 Mar 09:13:13 09:16:26 22° 65° (ENE) 09:19:45 145.865
COMPASS 1 05 Mar 09:14:44 09:18:58 77° 102° (ESE) 09:23:11 437.405
SO-50 05 Mar 09:17:30 09:22:27 71° 51° (NE) 09:27:22 436.795
Oscar 11 05 Mar 09:23:21 09:27:26 40° 97° (E) 09:31:32 145.826/435.025
ISS 05 Mar 09:34:21 09:37:28 44° 340° (NNW) 09:40:35 145.825
GOMX 1 05 Mar 09:40:34 09:44:39 38° 290° (WNW) 09:48:32 467.674
BUGSAT 1 05 Mar 09:41:24 09:45:09 31° 68° (ENE) 09:48:57 437.445
CUSAT 1 05 Mar 09:43:58 09:45:26 14° 69° (ENE) 09:46:59 437.405
QB50P1 05 Mar 09:45:50 09:49:54 45° 71° (ENE) 09:54:01 145.935-145.965
SEEDS 05 Mar 09:46:39 09:50:38 40° 289° (WNW) 09:54:36 437.485
CINEMA 3 05 Mar 09:48:02 09:52:13 84° 288° (WNW) 09:56:23 145.822/145.860
CUBEBUG 2 05 Mar 09:49:22 09:53:27 55° 100° (E) 09:57:33 437.445
QB50P2 05 Mar 09:50:38 09:54:47 51° 72° (ENE) 09:58:58 145.880/145.840
BRITE-PL 05 Mar 09:51:00 09:54:35 23° 295° (WNW) 09:57:55 437.365/2234.400
DX 1 05 Mar 09:52:40 09:56:44 37° 97° (E) 10:00:48 434.975-435.025
CANX-2 05 Mar 09:54:50 09:58:28 27° 292° (WNW) 10:02:03 2200.000
HUMSAT D 05 Mar 09:57:10 10:00:32 24° 94° (E) 10:03:58 437.325/437.525
DELFI C3 05 Mar 10:00:28 10:04:35 82° 101° (ESE) 10:08:41 145.870
UNISAT 6 05 Mar 10:01:02 10:05:25 71° 258° (WSW) 10:09:44 437.425
DOVE 4 05 Mar 10:01:48 10:05:39 33° 291° (WNW) 10:09:22 437.250
DUCHIFAT 1 05 Mar 10:03:01 10:07:16 68° 74° (ENE) 10:11:31 145.980
